Regional Weather Roundup
Issued by NWS

Home | Current Version | Previous Version | Text Only | Print | Product List | Glossary Off
Versions: 1 2 3 4 5 6 7 8 9 10 11 12 13 14 15 16 17 18 19 20 21 22 23 24 25 26 27 28 29 30 31 32 33 34 35 36 37 38 39 40 41 42 43 44 45 46 47 48 49 50

000
ASUS43 KMKX 251254
RWRWI

WISCONSIN REGIONAL WEATHER ROUNDUP
NATIONAL WEATHER SERVICE MILWAUKEE/SULLIVAN WI
800 AM CDT MON MAY 25 2015

NOTE: "FAIR" INDICATES FEW OR NO CLOUDS BELOW 12,000 FEET WITH NO
SIGNIFICANT WEATHER AND/OR OBSTRUCTIONS TO VISIBILITY.

WIZ001-002-006>008-014>016-023>028-251400-
NORTHWEST WISCONSIN

CITY           SKY/WX    TMP DP  RH WIND       PRES   REMARKS
SUPERIOR ARPT  DRIZZLE   48  48  99 E10G16    29.74F
ASHLAND        LGT RAIN  53  53 100 NE10      29.74F FOG
HAYWARD        LGT RAIN  58  56  93 NE6       29.70F
SIREN          HVY RAIN  57  56  97 CALM      29.70S
CUMBERLAND     CLOUDY    55  54  94 E5        29.70S
RICE LAKE      DRIZZLE   56  55  94 CALM      29.70F
CHETEK         CLOUDY    57  57  99 CALM      29.70S FOG
LADYSMITH      DRIZZLE   57  57  97 E3        29.71F
EAU CLAIRE     LGT RAIN  58  56  93 CALM      29.68S FOG
MENOMONIE      CLOUDY    58  57  99 CALM      29.69R FOG
NEW RICHMOND   CLOUDY    56  56 100 E5        29.68S FOG
OSCEOLA        CLOUDY    57  57 100 E6        29.70F
$$

WIZ003>005-009-010-017-018-251400-
NORTH CENTRAL WISCONSIN

CITY           SKY/WX    TMP DP  RH WIND       PRES   REMARKS
MANITOWISH WTR DRIZZLE   56  56 100 E5        29.74F
ARBOR VITAE    RAIN      57  55  95 SE7       29.74F
WOODRUFF       RAIN      57  55  95 SE7       29.74F
RHINELANDER    FOG       57  56  96 SE9       29.75F VSB 1
EAGLE RIVER    LGT RAIN  55  55 100 SE9       29.75F
LAND O LAKES   RAIN      56  55  98 SE8       29.77F
PHILLIPS       LGT RAIN  56  56 100 E5        29.70F
TOMAHAWK       FOG       57  56  97 SE3       29.74F VSB 1
MEDFORD        FOG       58  58 100 SE7       29.71F VSB 1/4
MERRILL        FOG       58  58 100 SE7       29.73F VSB 1
$$

WIZ029-030-035-036-043>047-251400-
CENTRAL WISCONSIN

CITY           SKY/WX    TMP DP  RH WIND       PRES   REMARKS
WAUSAU         LGT RAIN  59  59 100 SE7       29.72F FOG
MOSINEE        NOT AVBL
MARSHFIELD     LGT RAIN  62  60  93 S8        29.72F FOG
STEVENS POINT  LGT RAIN  58  58  99 E6        29.74F
WAUPACA        FOG       63  62  97 E3        29.75F VSB 1
WAUTOMA        LGT RAIN  63  63 100 CALM      29.73F VSB 1
WISC RAPIDS    LGT RAIN  63  60  90 SE6       29.73F FOG
CAMP DOUGLAS   CLOUDY    63  63 100 SE5       29.71S FOG
$$

WIZ011>013-019>022-031-037>040-048>050-251400-
NORTHEAST WISCONSIN

CITY           SKY/WX    TMP DP  RH WIND       PRES   REMARKS
ANTIGO         RAIN      55  55 100 SE8       29.76F VSB 1/2
SHAWANO        DRIZZLE   60  58  96 E6        29.77F
OCONTO         CLOUDY    55  55 100 E5        29.79S
STURGEON BAY   CLOUDY    55  52  88 SE8       29.83F VSB 3/4
GREEN BAY      LGT RAIN  60  59  96 E6        29.78F FOG
MANITOWOC      FOG       51  51 100 SE3       29.81F VSB<1/4
APPLETON       CLOUDY    63  63 100 VRB5      29.77F FOG
CLINTONVILLE   DRIZZLE   59  59 100 CALM      29.76F
OSHKOSH        CLOUDY    66  63  90 SE10      29.75F
$$

WIZ032>034-041-042-053>061-251400-
SOUTHWEST WISCONSIN

CITY           SKY/WX    TMP DP  RH WIND       PRES   REMARKS
LA CROSSE      LGT RAIN  66  62  87 S7        29.69S FOG
SPARTA         DRIZZLE   64  63  95 S5        29.72R
VIROQUA        CLOUDY    63  63 100 SW8       29.73R
BOSCOBEL       LGT RAIN  66  64  93 SW5       29.73R FOG
PRAIRIE DU CHI CLOUDY    65  63  93 S3        29.73R
PLATTEVILLE    CLOUDY    64  64  98 SW14      29.77R
$$

WIZ056-057-062-063-064-067-068-251400-
SOUTH CENTRAL WISCONSIN

CITY           SKY/WX    TMP DP  RH WIND       PRES   REMARKS
REEDSBURG      HVY RAIN  64  64 100 CALM      29.71F
BARABOO/DELLS  RAIN      64  63  94 S5        29.72S
LONE ROCK      CLOUDY    65  64  97 W3        29.73R
MINERAL POINT  LGT RAIN  64  63  94 W10       29.74R
MADISON        CLOUDY    67  64  90 S14       29.72F
MIDDLETON      CLOUDY    67  67  97 S12G22    29.72F
WATERTOWN      CLOUDY   N/A N/A N/A S9        29.76F
MONROE         CLOUDY    64  63  94 SW22G30   29.75R
JANESVILLE     CLOUDY    66  64  94 S16       29.76S FOG
$$

WIZ051-052-058>065-066-070>072-251400-
SOUTHEAST WISCONSIN

CITY           SKY/WX    TMP DP  RH WIND       PRES   REMARKS
MILWAUKEE      CLOUDY    61  58  90 S8        29.82S
WAUKESHA       CLOUDY    63  63 100 SE8       29.81S FOG
MILWAUKEE/TIMM CLOUDY    61  57  88 S10       29.81F FOG
RACINE         CLOUDY    59  55  87 SE5       29.83F
BURLINGTON     CLOUDY    64  62  92 S9        29.80F
KENOSHA        CLOUDY    70  63  78 S16G26    29.82S
FOND DU LAC    CLOUDY    66  63  90 S9        29.76F
SHEBOYGAN      FOG       56  55  97 S5        29.80F VSB 1
WEST BEND      CLOUDY    61  59  94 SE6       29.80S FOG
JUNEAU         CLOUDY    65  64  94 SE13      29.77F
$$

LSZ147-162-251400-
LAKE SUPERIOR

STATION/POSITION TIME  TEMP    WIND        PRES    WAVE
                       AIR SEA DIR/SP/G            HT/PER
                 (UTC) (F)     (DEG/KT/KT) (MB)    (FT/S)
W MID LAKE BUOY  1150   41 37   40/ 12/ 16   N/A     0
DEVILS ISLAND    1200   46      40/ 24/ 26 1084.0F
PORT WING        1100   46      30/ 18/ 20 1078.0F
$$

LMZ867-665-643>646-251400-
LAKE MICHIGAN

STATION/POSITION TIME  TEMP    WIND        PRES    WAVE
                       AIR SEA DIR/SP/G            HT/PER
                 (UTC) (F)     (DEG/KT/KT) (MB)    (FT/S)
CHAMBERS ISLAND  1100   54     110/  3/  7   N/A
N MID LAKE BUOY  1150   44 36  110/ 12/ 12   N/A     1/ 3
NORTHPORT PIER   1100   50     140/  6/  9   N/A
SISTER BAY       1103   51     100/  6/ 10   N/A
KEWAUNEE LAKESHO 1200   47     180/  8/  9 1088.0F
SHEBOYGAN LAKESH 1200   47     170/ 10/ 11   N/A
PORT WASHINGTON  1100   51     150/  2/  3   N/A
ATWATER BUOY     1200   50 47  160/  4/  6   N/A
MILWAUKEE LAKESH 1200   51     120/  1/  2   N/A
S MID LAKE BUOY  1150   48 38  170/ 14/ 14   N/A     2/ 3
$$

TC  - TEMPERATURE IN CELSIUS
VSB - VISIBILITY IN STATUTE MILES
WCI - WIND CHILL INDEX
HX  - HEAT INDEX



USA.gov is the U.S. government's official web portal to all federal, state and local government web resources and services.